sat.trackr.live / text

‹ back to catalog

STARLINK-6034

NORAD 56324 · 2023-058H

PAYLOAD ACTIVE UNKNOWN

§ Identity

Operator
Country
US
Launch date
2023-04-27
Launch site
AFWTR
Launch vehicle
Mass (kg)
RCS (m²)

Purposes: comms

External: N2YO · Heavens-Above · Gunter

§ Orbital elements

Epoch: 2026-05-24T23:55:29.707104Z

Period
95.64 min
Inclination
97.4456°
Eccentricity
0.0001065
Mean motion
15.05706078 rev/d
Perigee alt
548.6 km
Apogee alt
550.1 km
Semi-major
6,927.5 km
B*
-7.8010e-4
RAAN
146.1409°
Arg perigee
66.0613°
Mean anomaly
294.0726°
Rev number
16,933

§ Raw data

STARLINK-60341 56324U 23058H   26144.99687161 -.00011313  00000+0 -78010-3 0  99912 56324  97.4456 146.1409 0001065  66.0613 294.0726 15.05706078169337

JSON: /api/v1/satellites/56324 · /tle

For live sub-satellite position, see the globe view (requires WebGL).

§ Visibility from observer

Set your observer location to see the next 7 days of passes ≥ 10°. The values pass through the URL so the page stays shareable.

No JS? Fill the form by hand. The geolocation button needs JavaScript.